Time,TemperatureF,DewpointF,PressureIn,WindDirection,WindDirectionDegrees,WindSpeedMPH,WindSpeedGustMPH,Humidity,HourlyPrecipIn,Conditions,Clouds,dailyrainin,SoftwareType,DateUTC
2013-01-24 05:53:00,13.0,8.0,30.36,NW,304,3.0,7.0,79,0.00,,,0.00,,2013-01-24 10:53:00,
2013-01-24 06:03:00,13.0,8.0,30.37,NW,321,4.0,10.0,79,0.00,,,0.00,,2013-01-24 11:03:00,
2013-01-24 06:12:00,13.0,8.0,30.37,NW,321,4.0,10.0,79,0.00,,,0.00,,2013-01-24 11:12:00,
2013-01-24 06:23:00,12.0,6.0,30.38,NW,326,5.0,12.0,78,0.00,,,0.00,,2013-01-24 11:23:00,
2013-01-24 06:33:00,12.0,6.0,30.40,NW,325,2.0,5.0,78,0.00,,,0.00,,2013-01-24 11:33:00,
2013-01-24 06:43:00,12.0,6.0,30.40,NW,325,2.0,5.0,78,0.00,,,0.00,,2013-01-24 11:43:00,
2013-01-24 06:53:00,12.0,6.0,30.41,NW,313,3.0,9.0,78,0.00,,,0.00,,2013-01-24 11:53:00,
2013-01-24 07:03:00,11.0,6.0,30.43,NW,317,4.0,10.0,79,0.00,,,0.00,,2013-01-24 12:03:00,
2013-01-24 07:12:00,11.0,6.0,30.43,NW,317,4.0,10.0,79,0.00,,,0.00,,2013-01-24 12:12:00,
2013-01-24 07:23:00,11.0,6.0,30.44,NNW,328,4.0,15.0,80,0.00,,,0.00,,2013-01-24 12:23:00,
2013-01-24 07:33:00,11.0,6.0,30.45,NW,317,4.0,6.0,80,0.00,,,0.00,,2013-01-24 12:33:00,
2013-01-24 07:43:00,11.0,6.0,30.45,NW,317,4.0,6.0,80,0.00,,,0.00,,2013-01-24 12:43:00,
2013-01-24 07:53:00,11.0,6.0,30.47,NW,321,3.0,10.0,80,0.00,,,0.00,,2013-01-24 12:53:00,
2013-01-24 08:03:00,10.0,5.0,30.48,NW,323,5.0,10.0,81,0.00,,,0.00,,2013-01-24 13:03:00,
2013-01-24 08:13:00,10.0,5.0,30.48,NW,323,5.0,10.0,81,0.00,,,0.00,,2013-01-24 13:13:00,
2013-01-24 08:23:00,10.0,6.0,30.49,NW,323,6.0,10.0,82,0.00,,,0.00,,2013-01-24 13:23:00,
2013-01-24 08:33:00,10.0,6.0,30.49,NW,314,2.0,5.0,82,0.00,,,0.00,,2013-01-24 13:33:00,
2013-01-24 08:43:00,10.0,6.0,30.49,NW,314,2.0,5.0,82,0.00,,,0.00,,2013-01-24 13:43:00,
2013-01-24 08:53:00,10.0,6.0,30.50,NW,324,3.0,6.0,83,0.00,,,0.00,,2013-01-24 13:53:00,
2013-01-24 09:03:00,11.0,7.0,30.50,NNW,331,5.0,9.0,83,0.00,,,0.00,,2013-01-24 14:03:00,
2013-01-24 09:12:00,11.0,7.0,30.50,NNW,331,5.0,9.0,83,0.00,,,0.00,,2013-01-24 14:12:00,
2013-01-24 09:23:00,12.0,8.0,30.52,North,349,5.0,7.0,83,0.00,,,0.00,,2013-01-24 14:23:00,
2013-01-24 09:33:00,13.0,9.0,30.53,NNW,335,5.0,9.0,83,0.00,,,0.00,,2013-01-24 14:33:00,
2013-01-24 09:43:00,13.0,9.0,30.53,NNW,335,5.0,9.0,83,0.00,,,0.00,,2013-01-24 14:43:00,
2013-01-24 09:54:00,13.0,9.0,30.54,NNW,347,4.0,10.0,82,0.00,,,0.00,,2013-01-24 14:54:00,
2013-01-24 10:03:00,13.0,9.0,30.55,North,350,6.0,12.0,82,0.00,,,0.00,,2013-01-24 15:03:00,
2013-01-24 10:12:00,13.0,9.0,30.55,North,350,6.0,12.0,82,0.00,,,0.00,,2013-01-24 15:12:00,
2013-01-24 10:23:00,14.0,10.0,30.56,NNW,347,5.0,9.0,82,0.00,,,0.00,,2013-01-24 15:23:00,
2013-01-24 10:33:00,14.0,10.0,30.56,NNW,347,5.0,9.0,82,0.00,,,0.00,,2013-01-24 15:33:00,
2013-01-24 10:43:00,15.0,10.0,30.58,North,353,6.0,12.0,81,0.00,,,0.00,,2013-01-24 15:43:00,
2013-01-24 10:53:00,16.0,11.0,30.59,North,353,6.0,9.0,81,0.00,,,0.00,,2013-01-24 15:53:00,
2013-01-24 11:04:00,16.0,11.0,30.60,North,6,5.0,9.0,79,0.00,,,0.00,,2013-01-24 16:04:00,
2013-01-24 11:12:00,16.0,11.0,30.60,North,6,5.0,9.0,79,0.00,,,0.00,,2013-01-24 16:12:00,
2013-01-24 11:23:00,18.0,13.0,30.61,NNW,329,5.0,7.0,79,0.00,,,0.00,,2013-01-24 16:23:00,
2013-01-24 11:33:00,18.0,11.0,30.62,North,354,5.0,7.0,75,0.00,,,0.00,,2013-01-24 16:33:00,
2013-01-24 11:42:00,18.0,11.0,30.62,North,354,5.0,7.0,75,0.00,,,0.00,,2013-01-24 16:42:00,
2013-01-24 12:02:00,19.0,12.0,30.61,NNW,337,5.0,10.0,73,0.00,,,0.00,,2013-01-24 17:02:00,
2013-01-24 12:12:00,19.0,12.0,30.61,NNW,337,5.0,10.0,73,0.00,,,0.00,,2013-01-24 17:12:00,
2013-01-24 12:22:00,20.0,12.0,30.61,NNE,19,5.0,10.0,70,0.00,,,0.00,,2013-01-24 17:22:00,
2013-01-24 12:32:00,20.0,12.0,30.61,NNW,338,3.0,6.0,70,0.00,,,0.00,,2013-01-24 17:32:00,
2013-01-24 12:42:00,20.0,12.0,30.61,NNW,338,3.0,6.0,70,0.00,,,0.00,,2013-01-24 17:42:00,
2013-01-24 12:52:00,21.0,12.0,30.61,North,8,5.0,7.0,67,0.00,,,0.00,,2013-01-24 17:52:00,
2013-01-24 13:02:00,21.0,11.0,30.60,North,0,1.0,5.0,66,0.00,,,0.00,,2013-01-24 18:02:00,
2013-01-24 13:12:00,22.0,13.0,30.60,North,5,4.0,7.0,67,0.00,,,0.00,,2013-01-24 18:12:00,
2013-01-24 13:22:00,22.0,13.0,30.60,North,5,4.0,7.0,67,0.00,,,0.00,,2013-01-24 18:22:00,
2013-01-24 13:33:00,21.0,11.0,30.59,NNE,23,5.0,10.0,64,0.00,,,0.00,,2013-01-24 18:33:00,
2013-01-24 13:42:00,21.0,11.0,30.59,NNE,23,5.0,10.0,64,0.00,,,0.00,,2013-01-24 18:42:00,
2013-01-24 13:53:00,21.0,11.0,30.59,NNE,21,6.0,10.0,64,0.00,,,0.00,,2013-01-24 18:53:00,
2013-01-24 14:02:00,22.0,12.0,30.59,NNE,24,2.0,5.0,65,0.00,,,0.00,,2013-01-24 19:02:00,
2013-01-24 14:12:00,22.0,11.0,30.58,NNE,26,3.0,8.0,61,0.00,,,0.00,,2013-01-24 19:12:00,
2013-01-24 14:22:00,22.0,11.0,30.58,NNE,26,3.0,8.0,61,0.00,,,0.00,,2013-01-24 19:22:00,
2013-01-24 14:33:00,22.0,11.0,30.57,NE,41,1.0,3.0,61,0.00,,,0.00,,2013-01-24 19:33:00,
2013-01-24 14:42:00,22.0,11.0,30.58,NNE,22,6.0,12.0,61,0.00,,,0.00,,2013-01-24 19:42:00,
2013-01-24 14:53:00,22.0,11.0,30.58,NNE,22,6.0,12.0,61,0.00,,,0.00,,2013-01-24 19:53:00,
2013-01-24 15:02:00,22.0,11.0,30.57,NNE,19,5.0,9.0,63,0.00,,,0.00,,2013-01-24 20:02:00,
2013-01-24 15:11:00,22.0,11.0,30.57,NE,38,4.0,9.0,61,0.00,,,0.00,,2013-01-24 20:11:00,
2013-01-24 15:22:00,22.0,11.0,30.57,NE,38,4.0,9.0,61,0.00,,,0.00,,2013-01-24 20:22:00,
2013-01-24 15:32:00,22.0,11.0,30.57,NNE,27,5.0,10.0,63,0.00,,,0.00,,2013-01-24 20:32:00,
2013-01-24 15:42:00,22.0,12.0,30.57,NNE,21,9.0,13.0,64,0.00,,,0.00,,2013-01-24 20:42:00,
2013-01-24 15:52:00,22.0,12.0,30.57,NNE,21,9.0,13.0,64,0.00,,,0.00,,2013-01-24 20:52:00,
2013-01-24 16:02:00,22.0,12.0,30.57,NNE,25,6.0,10.0,64,0.00,,,0.00,,2013-01-24 21:02:00,
2013-01-24 16:12:00,22.0,12.0,30.57,NNE,28,6.0,10.0,65,0.00,,,0.00,,2013-01-24 21:12:00,
2013-01-24 16:22:00,22.0,12.0,30.57,NNE,28,6.0,10.0,65,0.00,,,0.00,,2013-01-24 21:22:00,
2013-01-24 16:33:00,21.0,10.0,30.56,ENE,57,3.0,9.0,63,0.00,,,0.00,,2013-01-24 21:33:00,
2013-01-24 16:43:00,21.0,10.0,30.56,ENE,57,3.0,9.0,63,0.00,,,0.00,,2013-01-24 21:43:00,
2013-01-24 16:53:00,21.0,11.0,30.57,NNE,26,5.0,10.0,66,0.00,,,0.00,,2013-01-24 21:53:00,
2013-01-24 17:03:00,21.0,11.0,30.57,NE,39,3.0,7.0,66,0.00,,,0.00,,2013-01-24 22:03:00,
2013-01-24 17:12:00,21.0,11.0,30.57,NE,51,2.0,6.0,64,0.00,,,0.00,,2013-01-24 22:12:00,
2013-01-24 17:22:00,21.0,11.0,30.57,NE,51,2.0,6.0,64,0.00,,,0.00,,2013-01-24 22:22:00,
2013-01-24 17:32:00,20.0,11.0,30.57,NNE,24,4.0,6.0,66,0.00,,,0.00,,2013-01-24 22:32:00,
2013-01-24 17:42:00,20.0,11.0,30.57,NNE,24,4.0,6.0,66,0.00,,,0.00,,2013-01-24 22:42:00,
2013-01-24 17:52:00,19.0,10.0,30.57,NE,43,4.0,6.0,66,0.00,,,0.00,,2013-01-24 22:52:00,
2013-01-24 18:03:00,19.0,10.0,30.58,NE,49,3.0,5.0,67,0.00,,,0.00,,2013-01-24 23:03:00,
2013-01-24 18:12:00,19.0,10.0,30.58,NE,49,3.0,5.0,67,0.00,,,0.00,,2013-01-24 23:12:00,
2013-01-24 18:22:00,18.0,9.0,30.58,NE,46,1.0,3.0,68,0.00,,,0.00,,2013-01-24 23:22:00,
2013-01-24 18:32:00,17.0,9.0,30.58,ENE,63,2.0,3.0,70,0.00,,,0.00,,2013-01-24 23:32:00,
2013-01-24 18:42:00,17.0,9.0,30.58,ENE,63,2.0,3.0,70,0.00,,,0.00,,2013-01-24 23:42:00,
2013-01-24 18:52:00,17.0,10.0,30.58,ENE,64,0.0,1.0,72,0.00,,,0.00,,2013-01-24 23:52:00,
2013-01-24 19:02:00,17.0,10.0,30.58,ENE,63,1.0,2.0,73,0.00,,,0.00,,2013-01-25 00:02:00,
2013-01-24 19:12:00,17.0,10.0,30.58,ENE,63,1.0,2.0,73,0.00,,,0.00,,2013-01-25 00:12:00,
2013-01-24 19:22:00,17.0,10.0,30.59,ENE,63,1.0,2.0,73,0.00,,,0.00,,2013-01-25 00:22:00,
2013-01-24 19:32:00,17.0,10.0,30.59,ENE,63,0.0,2.0,74,0.00,,,0.00,,2013-01-25 00:32:00,
2013-01-24 19:42:00,17.0,10.0,30.59,ENE,63,0.0,2.0,74,0.00,,,0.00,,2013-01-25 00:42:00,
2013-01-24 19:53:00,17.0,10.0,30.58,ENE,61,2.0,3.0,74,0.00,,,0.00,,2013-01-25 00:53:00,
2013-01-24 20:02:00,16.0,9.0,30.58,ENE,61,2.0,3.0,75,0.00,,,0.00,,2013-01-25 01:02:00,
2013-01-24 20:12:00,15.0,9.0,30.58,ENE,61,2.0,3.0,76,0.00,,,0.00,,2013-01-25 01:12:00,
2013-01-24 20:22:00,15.0,9.0,30.58,ENE,61,2.0,3.0,76,0.00,,,0.00,,2013-01-25 01:22:00,
2013-01-24 20:32:00,15.0,9.0,30.57,ENE,61,1.0,3.0,78,0.00,,,0.00,,2013-01-25 01:32:00,
2013-01-24 20:42:00,15.0,9.0,30.57,ENE,61,1.0,3.0,78,0.00,,,0.00,,2013-01-25 01:42:00,
2013-01-24 20:52:00,15.0,10.0,30.56,ENE,61,2.0,3.0,79,0.00,,,0.00,,2013-01-25 01:52:00,
2013-01-24 21:02:00,15.0,10.0,30.56,ENE,63,0.0,3.0,79,0.00,,,0.00,,2013-01-25 02:02:00,
2013-01-24 21:11:00,15.0,10.0,30.56,ENE,63,0.0,3.0,79,0.00,,,0.00,,2013-01-25 02:11:00,
2013-01-24 21:22:00,15.0,10.0,30.56,ENE,63,1.0,2.0,79,0.00,,,0.00,,2013-01-25 02:22:00,
2013-01-24 21:32:00,15.0,10.0,30.55,ENE,63,2.0,3.0,79,0.00,,,0.00,,2013-01-25 02:32:00,
2013-01-24 21:42:00,15.0,10.0,30.54,East,85,4.0,8.0,81,0.00,,,0.00,,2013-01-25 02:42:00,
2013-01-24 21:53:00,15.0,10.0,30.54,East,85,4.0,8.0,81,0.00,,,0.00,,2013-01-25 02:53:00,
2013-01-24 22:02:00,16.0,11.0,30.54,East,84,5.0,7.0,80,0.00,,,0.00,,2013-01-25 03:02:00,
2013-01-24 22:10:00,16.0,11.0,30.53,East,100,8.0,12.0,80,0.00,,,0.00,,2013-01-25 03:10:00,
2013-01-24 22:12:00,16.0,11.0,30.54,East,100,5.0,10.0,80,0.00,,,0.00,,2013-01-25 03:12:00,
2013-01-24 22:22:00,16.0,11.0,30.54,East,100,5.0,10.0,80,0.00,,,0.00,,2013-01-25 03:22:00,
2013-01-24 22:33:00,16.0,11.0,30.53,East,100,8.0,12.0,80,0.00,,,0.00,,2013-01-25 03:33:00,
2013-01-24 22:42:00,16.0,11.0,30.53,East,100,8.0,12.0,80,0.00,,,0.00,,2013-01-25 03:42:00,
2013-01-24 22:53:00,16.0,11.0,30.53,East,100,8.0,12.0,80,0.00,,,0.00,,2013-01-25 03:53:00,
2013-01-24 23:02:00,16.0,11.0,30.53,East,100,8.0,12.0,80,0.00,,,0.00,,2013-01-25 04:02:00,